DW5274 Weather Reports


Display with metric or nautical units.
time (UTC)temp
F
wind
direction
speed
MPH
gust
MPH
rain 1hr
in
rain 24hr
in
rain mn
in
humidity
%
barometer
mb
20260508013021 76 51 3.0 0.0 0.00 0.00 0.00 26 1008.5
20260508011503 76 36 3.0 0.0 0.00 0.00 0.00 27 1008.5
20260508010002 77 29 3.0 0.0 0.00 0.00 0.00 27 1008.4
20260508004543 77 30 4.0 0.0 0.00 0.00 0.00 27 1008.6
20260508003057 77 346 4.0 0.0 0.00 0.00 0.00 26 1008.7
20260508001523 77 34 4.0 0.0 0.00 0.00 0.00 27 1008.7
20260508000022 77 335 5.0 0.0 0.00 0.00 0.00 27 1008.7
20260507234510 77 30 4.0 0.0 0.00 0.00 0.00 27 1008.7
20260507233007 77 53 4.0 0.0 0.00 0.00 0.00 27 1008.9
20260507231505 77 29 4.0 0.0 0.00 0.00 0.00 27 1009.0
20260507230008 77 40 5.0 0.0 0.00 0.00 0.00 28 1009.2
20260507224506 77 350 5.0 0.0 0.00 0.00 0.00 28 1009.2
20260507223002 78 30 4.0 0.0 0.00 0.00 0.00 28 1009.4
20260507221601 78 346 4.0 0.0 0.00 0.00 0.00 28 1009.7
20260507220101 78 342 3.0 0.0 0.00 0.00 0.00 27 1009.8
20260507214603 78 294 4.0 0.0 0.00 0.00 0.00 29 1010.0
20260507213040 78 360 3.0 0.0 0.00 0.00 0.00 29 1010.2
20260507211546 78 271 3.0 0.0 0.00 0.00 0.00 28 1010.4
20260507210020 77 288 4.0 0.0 0.00 0.00 0.00 31 1010.6
20260507204519 77 255 3.0 0.0 0.00 0.00 0.00 29 1010.8
20260507203019 76 327 0.0 0.0 0.00 0.00 0.00 30 1010.9
20260507201520 76 333 2.0 0.0 0.00 0.00 0.00 30 1011.1
20260507200018 76 264 0.0 0.0 0.00 0.00 0.00 31 1011.3
20260507194517 75 46 0.0 0.0 0.00 0.00 0.00 31 1011.4
20260507193017 74 47 0.0 0.0 0.00 0.00 0.00 30 1011.6
20260507191518 74 344 1.0 0.0 0.00 0.00 0.00 30 1011.8
20260507190059 74 343 3.0 0.0 0.00 0.00 0.00 31 1011.9
20260507184558 72 339 3.0 0.0 0.00 0.00 0.00 34 1012.0
20260507183041 71 339 4.0 0.0 0.00 0.00 0.00 36 1012.3
20260507181540 72 340 3.0 0.0 0.00 0.00 0.00 34 1012.5
20260507180028 71 338 2.0 0.0 0.00 0.00 0.00 36 1012.6
20260507174528 72 312 0.0 0.0 0.00 0.00 0.00 33 1012.7
20260507173030 72 338 0.0 0.0 0.00 0.00 0.00 34 1012.7
20260507171527 72 324 0.0 0.0 0.00 0.00 0.00 34 1012.9
20260507170026 70 325 0.0 0.0 0.00 0.00 0.00 36 1013.0
20260507164527 70 342 0.0 0.0 0.00 0.00 0.00 40 1013.0
20260507163026 69 342 0.0 0.0 0.00 0.00 0.00 41 1013.1
20260507161525 69 342 0.0 0.0 0.00 0.00 0.00 41 1013.2
20260507160007 68 342 0.0 0.0 0.00 0.00 0.00 43 1013.2
20260507154507 67 342 0.0 0.0 0.00 0.00 0.00 43 1013.3
20260507153053 66 342 0.0 0.0 0.00 0.00 0.00 44 1013.4
20260507151549 64 342 0.0 0.0 0.00 0.00 0.00 49 1013.5
20260507150030 63 342 0.0 0.0 0.00 0.00 0.00 48 1013.5
20260507144534 62 17 0.0 0.0 0.00 0.00 0.00 52 1013.4
20260507143012 59 17 0.0 0.0 0.00 0.00 0.00 56 1013.3
20260507141512 57 17 0.0 0.0 0.00 0.00 0.00 60 1013.2
20260507140108 56 17 0.0 0.0 0.00 0.00 0.00 62 1013.1
20260507134554 55 16 0.0 0.0 0.00 0.00 0.00 63 1012.9
20260507133035 55 16 0.0 0.0 0.00 0.00 0.00 63 1012.8
20260507131542 55 15 0.0 0.0 0.00 0.00 0.00 62 1012.7
20260507130017 55 15 0.0 0.0 0.00 0.00 0.00 62 1012.6
20260507124519 55 16 0.0 0.0 0.00 0.00 0.00 62 1012.6
20260507123004 54 15 0.0 0.0 0.00 0.00 0.00 61 1012.5
20260507121503 55 16 0.0 0.0 0.00 0.00 0.00 63 1012.4
20260507120001 55 15 0.0 0.0 0.00 0.00 0.00 64 1012.3
20260507114600 56 15 0.0 0.0 0.00 0.00 0.00 64 1012.3
20260507113058 56 15 0.0 0.0 0.00 0.00 0.00 64 1012.3
20260507111556 57 15 0.0 0.0 0.00 0.00 0.00 63 1012.3
20260507110056 57 16 0.0 0.0 0.00 0.00 0.00 63 1012.2
20260507104553 58 16 0.0 0.0 0.00 0.00 0.00 62 1012.2
20260507103039 58 16 0.0 0.0 0.00 0.00 0.00 62 1012.2
20260507101555 58 15 0.0 0.0 0.00 0.00 0.00 62 1012.1
20260507100037 59 16 0.0 0.0 0.00 0.00 0.00 62 1012.0
20260507094535 59 16 0.0 0.0 0.00 0.00 0.00 62 1011.9
20260507093034 59 16 0.0 0.0 0.00 0.00 0.00 62 1011.8
20260507091550 59 17 0.0 0.0 0.00 0.00 0.00 62 1011.8
20260507090031 59 17 0.0 0.0 0.00 0.00 0.00 62 1011.8
20260507084530 60 20 0.0 0.0 0.00 0.00 0.00 61 1011.9
20260507083020 60 20 0.0 0.0 0.00 0.00 0.00 61 1011.7
20260507081515 61 20 0.0 0.0 0.00 0.00 0.00 60 1011.7
20260507080016 61 20 0.0 0.0 0.00 0.00 0.00 58 1011.7
20260507074513 62 20 0.0 0.0 0.00 0.00 0.00 57 1011.5
20260507073010 62 20 0.0 0.0 0.00 0.00 0.00 56 1011.6
20260507071509 63 20 0.0 0.0 0.00 0.00 0.00 55 1011.5
20260507070010 63 20 0.0 0.0 0.00 0.00 0.00 54 1011.5
20260507064507 64 20 0.0 0.0 0.00 0.00 0.00 53 1011.6
20260507063045 64 20 0.0 0.0 0.00 0.00 0.00 52 1011.5
20260507061542 65 20 0.0 0.0 0.00 0.00 0.00 51 1011.4
20260507060031 66 20 0.0 0.0 0.00 0.00 0.00 50 1011.4
20260507054526 66 20 0.0 0.0 0.00 0.00 0.00 48 1011.4
20260507053024 67 20 0.0 0.0 0.00 0.00 0.00 48 1011.4
20260507051521 67 20 0.0 0.0 0.00 0.00 0.00 47 1011.4
20260507050030 68 20 0.0 0.0 0.00 0.00 0.00 47 1011.3
20260507044531 69 20 0.0 0.0 0.00 0.00 0.00 45 1011.1
20260507043014 69 20 0.0 0.0 0.00 0.00 0.00 43 1010.8
20260507041513 70 20 0.0 0.0 0.00 0.00 0.00 41 1010.7
20260507040053 70 20 0.0 0.0 0.00 0.00 0.00 40 1010.6
20260507034551 71 20 0.0 0.0 0.00 0.00 0.00 40 1010.5
20260507033036 72 20 0.0 0.0 0.00 0.00 0.00 37 1010.4
20260507031533 72 20 0.0 0.0 0.00 0.00 0.00 37 1010.3
20260507030033 73 20 0.0 0.0 0.00 0.00 0.00 35 1010.2
20260507024529 74 20 0.0 0.0 0.00 0.00 0.00 34 1010.2
20260507023026 75 20 0.0 0.0 0.00 0.00 0.00 33 1010.3
20260507021525 75 20 0.0 0.0 0.00 0.00 0.00 32 1010.4
20260507020024 76 20 0.0 0.0 0.00 0.00 0.00 32 1010.4
20260507014526 76 20 0.0 0.0 0.00 0.00 0.00 31 1010.6